FW6583 Weather Reports


Display with metric or nautical units.
time (UTC)temp
F
wind
direction
speed
MPH
gust
MPH
rain 1hr
in
rain 24hr
in
rain mn
in
humidity
%
barometer
mb
20260831172525 78 41 1.0 2.0 0.00 0.01 0.01 86 1024.4
20260831172028 78 58 0.0 2.0 0.00 0.01 0.01 88 1024.6
20260831171549 78 0 0.0 2.0 0.00 0.01 0.01 87 1024.6
20260831171025 78 27 0.0 2.0 0.00 0.01 0.01 87 1024.7
20260831170529 77 0 0.0 2.0 0.00 0.01 0.01 89 1024.8
20260831170048 77 0 0.0 2.0 0.00 0.01 0.01 89 1024.6
20260831165529 76 55 0.0 1.0 0.00 0.01 0.01 91 1024.7
20260831165028 76 0 0.0 1.0 0.00 0.01 0.01 90 1024.6
20260831164556 76 54 0.0 1.0 0.00 0.01 0.01 90 1024.7
20260831164028 75 23 0.0 1.0 0.00 0.01 0.01 91 1024.7
20260831163528 75 0 0.0 0.0 0.00 0.01 0.01 92 1024.8
20260831163046 75 0 0.0 0.0 0.00 0.01 0.01 91 1024.8
20260831162530 75 0 0.0 0.0 0.00 0.01 0.01 92 1024.7
20260831162030 75 0 0.0 0.0 0.00 0.01 0.01 93 1024.7
20260831161556 74 0 0.0 0.0 0.00 0.01 0.01 93 1024.7
20260831161028 74 0 0.0 0.0 0.00 0.01 0.01 93 1024.8
20260831160528 74 0 0.0 0.0 0.00 0.01 0.01 94 1024.8
20260831160103 74 0 0.0 0.0 0.00 0.01 0.01 94 1024.9
20260831155525 73 0 0.0 0.0 0.00 0.01 0.01 95 1024.8
20260831155027 73 0 0.0 0.0 0.00 0.01 0.01 95 1024.9
20260831154614 73 0 0.0 0.0 0.01 0.01 0.01 95 1025.0
20260831154027 72 0 0.0 0.0 0.01 0.01 0.01 95 1024.9
20260831153532 72 0 0.0 0.0 0.01 0.01 0.01 95 1024.8
20260831153057 72 0 0.0 0.0 0.01 0.01 0.01 95 1024.8
20260831152530 72 0 0.0 0.0 0.01 0.01 0.01 95 1024.9
20260831152028 72 0 0.0 0.0 0.01 0.01 0.01 95 1025.0
20260831151559 72 0 0.0 0.0 0.01 0.01 0.01 95 1025.1
20260831151029 72 0 0.0 0.0 0.01 0.01 0.01 95 1025.0
20260831150527 72 0 0.0 0.0 0.01 0.01 0.01 95 1025.0
20260831150056 71 0 0.0 0.0 0.01 0.01 0.01 94 1025.1
20260831145530 71 0 0.0 0.0 0.01 0.01 0.01 95 1025.0
20260831145026 71 0 0.0 0.0 0.01 0.01 0.01 95 1025.1
20260831144553 71 0 0.0 0.0 0.00 0.00 0.00 95 1024.9
20260831144031 71 0 0.0 0.0 0.00 0.00 0.00 95 1024.8
20260831143527 70 0 0.0 0.0 0.00 0.00 0.00 96 1024.7
20260831143046 70 0 0.0 0.0 0.00 0.00 0.00 96 1024.8
20260831142528 70 0 0.0 1.0 0.00 0.00 0.00 97 1025.0
20260831142029 70 0 0.0 1.0 0.00 0.00 0.00 97 1024.9
20260831141559 70 0 0.0 0.0 0.00 0.00 0.00 96 1024.8
20260831141026 69 0 0.0 0.0 0.00 0.00 0.00 97 1024.9
20260831140525 69 0 0.0 0.0 0.00 0.00 0.00 97 1024.9
20260831140052 69 0 0.0 0.0 0.00 0.00 0.00 97 1025.0
20260831135527 69 0 0.0 0.0 0.00 0.00 0.00 97 1025.0
20260831135028 69 0 0.0 0.0 0.00 0.00 0.00 97 1025.1
20260831134552 69 0 0.0 0.0 0.00 0.00 0.00 97 1025.1
20260831134026 69 0 0.0 0.0 0.00 0.00 0.00 97 1025.1
20260831133530 69 0 0.0 0.0 0.00 0.00 0.00 97 1025.0
20260831133048 69 0 0.0 0.0 0.00 0.00 0.00 97 1025.1
20260831132526 69 0 0.0 0.0 0.00 0.00 0.00 97 1024.9
20260831132026 69 0 0.0 0.0 0.00 0.00 0.00 97 1024.9
20260831131600 68 0 0.0 0.0 0.00 0.00 0.00 97 1024.8
20260831131027 68 0 0.0 0.0 0.00 0.00 0.00 97 1024.8
20260831130527 68 0 0.0 0.0 0.00 0.00 0.00 97 1024.8
20260831130053 68 0 0.0 1.0 0.00 0.00 0.00 97 1024.9
20260831125526 68 0 0.0 1.0 0.00 0.00 0.00 98 1024.8
20260831125027 68 0 0.0 0.0 0.00 0.00 0.00 98 1024.8
20260831124552 68 0 0.0 0.0 0.00 0.00 0.00 98 1024.8
20260831124028 68 0 0.0 0.0 0.00 0.00 0.00 98 1024.6
20260831123530 68 0 0.0 0.0 0.00 0.00 0.00 98 1024.4
20260831123047 68 0 0.0 0.0 0.00 0.00 0.00 98 1024.5
20260831122530 68 0 0.0 0.0 0.00 0.00 0.00 98 1024.5
20260831122028 68 0 0.0 0.0 0.00 0.00 0.00 98 1024.5
20260831121552 68 0 0.0 0.0 0.00 0.00 0.00 98 1024.6
20260831121025 68 0 0.0 0.0 0.00 0.00 0.00 98 1024.5
20260831120523 68 0 0.0 0.0 0.00 0.00 0.00 98 1024.3
20260831120048 68 0 0.0 0.0 0.00 0.00 0.00 98 1024.3
20260831115531 68 0 0.0 0.0 0.00 0.00 0.00 98 1024.3
20260831115027 68 0 0.0 0.0 0.00 0.00 0.00 98 1024.3
20260831114547 68 0 0.0 0.0 0.00 0.00 0.00 98 1024.3
20260831114025 68 0 0.0 0.0 0.00 0.00 0.00 98 1024.3
20260831113526 68 0 0.0 0.0 0.00 0.00 0.00 98 1024.2
20260831113105 68 0 0.0 0.0 0.00 0.00 0.00 98 1024.2
20260831112526 68 0 0.0 0.0 0.00 0.00 0.00 98 1024.2
20260831112026 68 0 0.0 0.0 0.00 0.00 0.00 98 1024.1
20260831111609 67 0 0.0 0.0 0.00 0.00 0.00 98 1024.1
20260831111024 67 0 0.0 0.0 0.00 0.00 0.00 98 1024.1
20260831110524 67 0 0.0 0.0 0.00 0.00 0.00 98 1024.0
20260831110050 67 0 0.0 0.0 0.00 0.00 0.00 98 1023.8
20260831105527 67 0 0.0 0.0 0.00 0.00 0.00 98 1023.7
20260831105027 67 0 0.0 0.0 0.00 0.00 0.00 98 1023.7
20260831104545 67 0 0.0 0.0 0.00 0.00 0.00 98 1023.7
20260831104026 67 0 0.0 0.0 0.00 0.00 0.00 98 1023.6
20260831103527 68 0 0.0 0.0 0.00 0.00 0.00 98 1023.6
20260831103102 68 0 0.0 0.0 0.00 0.00 0.00 98 1023.5
20260831102526 68 0 0.0 0.0 0.00 0.00 0.00 98 1023.6
20260831102029 68 0 0.0 0.0 0.00 0.00 0.00 98 1023.5
20260831101552 68 0 0.0 0.0 0.00 0.00 0.00 98 1023.6
20260831101026 68 0 0.0 0.0 0.00 0.00 0.00 98 1023.6
20260831100559 68 0 0.0 0.0 0.00 0.00 0.00 98 1023.7
20260831100052 68 0 0.0 0.0 0.00 0.00 0.00 98 1023.5
20260831095523 67 0 0.0 0.0 0.00 0.00 0.00 97 1023.6
20260831095026 68 0 0.0 0.0 0.00 0.00 0.00 97 1023.6
20260831094546 68 0 0.0 0.0 0.00 0.00 0.00 97 1023.6
20260831094025 68 0 0.0 0.0 0.00 0.00 0.00 97 1023.5
20260831093524 68 0 0.0 0.0 0.00 0.00 0.00 97 1023.6
20260831093058 68 0 0.0 0.0 0.00 0.00 0.00 97 1023.7
20260831092525 68 0 0.0 0.0 0.00 0.00 0.00 97 1023.7
20260831092028 68 0 0.0 0.0 0.00 0.00 0.00 97 1023.6
20260831091600 68 0 0.0 0.0 0.00 0.00 0.00 97 1023.6
20260831091030 68 0 0.0 0.0 0.00 0.00 0.00 97 1023.7
20260831090526 68 0 0.0 0.0 0.00 0.00 0.00 97 1023.5
20260831090101 68 0 0.0 0.0 0.00 0.00 0.00 97 1023.6
20260831085526 68 0 0.0 0.0 0.00 0.00 0.00 97 1023.6
20260831085025 69 0 0.0 0.0 0.00 0.00 0.00 97 1023.7
20260831084550 69 0 0.0 0.0 0.00 0.00 0.00 97 1023.8
20260831084023 69 0 0.0 0.0 0.00 0.00 0.00 97 1023.8
20260831083526 69 0 0.0 0.0 0.00 0.00 0.00 97 1023.7
20260831083049 69 0 0.0 0.0 0.00 0.00 0.00 97 1023.6
20260831082524 69 0 0.0 0.0 0.00 0.00 0.00 97 1023.7
20260831082025 69 0 0.0 0.0 0.00 0.00 0.00 97 1023.5
20260831081550 69 0 0.0 0.0 0.00 0.00 0.00 97 1023.4
20260831081026 69 0 0.0 0.0 0.00 0.00 0.00 97 1023.4
20260831080525 69 0 0.0 0.0 0.00 0.00 0.00 97 1023.5
20260831080136 69 0 0.0 0.0 0.00 0.00 0.00 97 1023.6
20260831075524 69 0 0.0 0.0 0.00 0.00 0.00 97 1023.6
20260831075024 69 0 0.0 0.0 0.00 0.00 0.00 97 1023.6
20260831074554 69 0 0.0 0.0 0.00 0.00 0.00 97 1023.6
20260831074024 69 0 0.0 0.0 0.00 0.00 0.00 97 1023.7
20260831073522 69 0 0.0 0.0 0.00 0.00 0.00 97 1023.7
20260831073113 69 0 0.0 0.0 0.00 0.00 0.00 97 1023.7
20260831072526 69 0 0.0 0.0 0.00 0.00 0.00 96 1023.8
20260831072025 70 0 0.0 0.0 0.00 0.00 0.00 97 1023.7
20260831071552 70 0 0.0 0.0 0.00 0.00 0.00 97 1023.6
20260831071029 70 0 0.0 0.0 0.00 0.00 0.00 97 1023.7
20260831070529 70 0 0.0 0.0 0.00 0.00 0.00 97 1023.5
20260831070056 70 0 0.0 0.0 0.00 0.00 0.00 97 1023.7
20260831065526 70 0 0.0 0.0 0.00 0.00 0.00 97 1023.7
20260831065024 70 0 0.0 0.0 0.00 0.00 0.00 96 1023.8
20260831064551 70 0 0.0 0.0 0.00 0.00 0.00 96 1023.7
20260831064027 70 0 0.0 0.0 0.00 0.00 0.00 96 1023.7
20260831063525 70 0 0.0 0.0 0.00 0.00 0.00 96 1023.7
20260831063049 70 0 0.0 0.0 0.00 0.00 0.00 96 1023.7
20260831062526 70 0 0.0 0.0 0.00 0.00 0.00 96 1023.7
20260831062030 70 0 0.0 0.0 0.00 0.00 0.00 96 1023.7
20260831061600 70 0 0.0 0.0 0.00 0.00 0.00 96 1023.7
20260831061029 70 0 0.0 0.0 0.00 0.00 0.00 96 1023.9
20260831060527 70 0 0.0 0.0 0.00 0.00 0.00 95 1023.8
20260831060101 70 0 0.0 0.0 0.00 0.00 0.00 95 1023.8
20260831055525 70 0 0.0 0.0 0.00 0.00 0.00 95 1023.8
20260831055027 70 0 0.0 0.0 0.00 0.00 0.00 95 1023.9
20260831054553 70 0 0.0 0.0 0.00 0.00 0.00 95 1023.9
20260831054029 70 0 0.0 0.0 0.00 0.00 0.00 95 1023.9
20260831053525 70 0 0.0 0.0 0.00 0.00 0.00 96 1024.0
20260831053058 71 0 0.0 0.0 0.00 0.00 0.00 96 1024.0
20260831052527 70 0 0.0 0.0 0.00 0.00 0.00 96 1024.1
20260831052025 70 0 0.0 0.0 0.00 0.00 0.00 96 1024.1
20260831051551 71 0 0.0 0.0 0.00 0.00 0.00 95 1024.1
20260831051027 71 0 0.0 0.0 0.00 0.00 0.00 95 1024.1
20260831050527 71 0 0.0 0.0 0.00 0.00 0.00 95 1024.0
20260831050049 71 0 0.0 0.0 0.00 0.00 0.00 95 1024.2
20260831045526 71 0 0.0 0.0 0.00 0.00 0.00 94 1024.2
20260831045025 71 0 0.0 0.0 0.00 0.00 0.00 94 1024.2
20260831044556 71 0 0.0 0.0 0.00 0.00 0.00 93 1024.1
20260831044026 72 0 0.0 0.0 0.00 0.00 0.00 92 1024.0
20260831043525 72 0 0.0 0.0 0.00 0.00 0.00 92 1024.0
20260831043054 72 0 0.0 0.0 0.00 0.00 0.00 92 1024.0
20260831042527 72 0 0.0 0.0 0.00 0.00 0.00 92 1024.1
20260831042025 72 0 0.0 0.0 0.00 0.00 0.00 92 1024.2
20260831041557 72 0 0.0 0.0 0.00 0.00 0.00 93 1024.1
20260831041029 72 0 0.0 0.0 0.00 0.00 0.00 93 1024.3
20260831040526 72 0 0.0 0.0 0.00 0.00 0.00 93 1024.4
20260831040047 72 0 0.0 0.0 0.00 0.00 0.00 93 1024.6
20260831035525 73 0 0.0 0.0 0.00 0.00 0.00 93 1024.8
20260831035026 73 0 0.0 0.0 0.00 0.00 0.00 92 1024.9
20260831034553 73 0 0.0 0.0 0.00 0.00 0.00 92 1025.0
20260831034028 73 0 0.0 0.0 0.00 0.00 0.00 92 1025.1
20260831033525 73 0 0.0 0.0 0.00 0.00 0.00 92 1025.0
20260831033056 73 0 0.0 0.0 0.00 0.00 0.00 92 1024.9
20260831032527 73 0 0.0 0.0 0.00 0.00 0.00 92 1025.0
20260831032026 73 0 0.0 0.0 0.00 0.00 0.00 92 1025.0
20260831031554 73 0 0.0 0.0 0.00 0.00 0.00 92 1025.0
20260831031029 73 0 0.0 0.0 0.00 0.00 0.00 93 1025.0
20260831030526 73 0 0.0 0.0 0.00 0.00 0.00 93 1024.9
20260831030058 73 0 0.0 0.0 0.00 0.00 0.00 93 1024.9
20260831025525 73 0 0.0 0.0 0.00 0.00 0.00 93 1024.9
20260831025031 73 0 0.0 0.0 0.00 0.00 0.00 93 1024.9
20260831024559 73 0 0.0 0.0 0.00 0.00 0.00 93 1024.9
20260831024026 73 0 0.0 0.0 0.00 0.00 0.00 93 1025.0
20260831023524 72 0 0.0 0.0 0.00 0.00 0.00 93 1025.0
20260831023053 73 0 0.0 0.0 0.00 0.00 0.00 93 1025.1
20260831022528 73 0 0.0 0.0 0.00 0.00 0.00 93 1025.0
20260831022026 73 0 0.0 0.0 0.00 0.00 0.00 93 1025.0
20260831021549 73 0 0.0 0.0 0.00 0.00 0.00 92 1024.9
20260831021025 73 0 0.0 0.0 0.00 0.00 0.00 92 1025.0
20260831020526 73 0 0.0 0.0 0.00 0.00 0.00 92 1025.0
20260831020047 73 0 0.0 0.0 0.00 0.00 0.00 92 1024.9
20260831015528 73 0 0.0 0.0 0.00 0.00 0.00 92 1024.8
20260831015027 73 0 0.0 0.0 0.00 0.00 0.00 92 1024.8
20260831014557 73 0 0.0 0.0 0.00 0.00 0.00 92 1024.8
20260831014027 73 0 0.0 0.0 0.00 0.00 0.00 92 1024.9
20260831013525 73 0 0.0 0.0 0.00 0.00 0.00 92 1024.9
20260831013056 73 0 0.0 0.0 0.00 0.00 0.00 91 1024.9
20260831012524 73 0 0.0 0.0 0.00 0.00 0.00 91 1024.8
20260831012028 73 0 0.0 0.0 0.00 0.00 0.00 91 1024.8
20260831011549 74 0 0.0 0.0 0.00 0.00 0.00 91 1024.7
20260831011027 74 0 0.0 0.0 0.00 0.00 0.00 90 1024.7
20260831010526 74 0 0.0 0.0 0.00 0.00 0.00 90 1024.6
20260831010120 74 0 0.0 0.0 0.00 0.00 0.00 90 1024.5
20260831005527 74 0 0.0 0.0 0.00 0.00 0.00 90 1024.4
20260831005029 74 0 0.0 0.0 0.00 0.00 0.00 89 1024.1
20260831004554 74 0 0.0 1.0 0.00 0.00 0.00 89 1024.1
20260831004027 74 0 0.0 1.0 0.00 0.00 0.00 89 1024.0
20260831003528 74 117 0.0 1.0 0.00 0.00 0.00 89 1023.9
20260831003101 74 117 0.0 1.0 0.00 0.00 0.00 88 1023.9
20260831002525 74 0 0.0 1.0 0.00 0.00 0.00 88 1023.9
20260831002026 74 0 0.0 1.0 0.00 0.00 0.00 88 1023.8
20260831001557 74 117 0.0 1.0 0.00 0.00 0.00 88 1023.7
20260831001026 74 117 0.0 1.0 0.00 0.00 0.00 88 1023.7
20260831000526 74 117 0.0 1.0 0.00 0.00 0.00 87 1023.7
20260831000052 75 117 0.0 1.0 0.00 0.00 0.00 87 1023.5
20260830235528 75 117 0.0 1.0 0.00 0.00 0.00 87 1023.4
20260830235025 75 118 0.0 1.0 0.00 0.00 0.00 86 1023.6
20260830234550 75 118 0.0 1.0 0.00 0.00 0.00 86 1023.4
20260830234030 75 118 0.0 1.0 0.00 0.00 0.00 86 1023.4
20260830233529 75 118 0.0 1.0 0.00 0.00 0.00 86 1023.5
20260830233101 75 118 0.0 1.0 0.00 0.00 0.00 85 1023.4
20260830232524 76 0 0.0 1.0 0.00 0.00 0.00 85 1023.3
20260830232025 77 0 0.0 0.0 0.00 0.00 0.00 85 1023.2
20260830231558 77 0 0.0 0.0 0.00 0.00 0.00 83 1023.2
20260830231025 77 0 0.0 0.0 0.00 0.00 0.00 83 1023.1
20260830230527 77 0 0.0 1.0 0.00 0.00 0.00 82 1023.1
20260830230052 77 0 0.0 1.0 0.00 0.00 0.00 82 1023.1
20260830225526 77 0 0.0 1.0 0.00 0.00 0.00 82 1023.0
20260830225027 77 0 0.0 0.0 0.00 0.00 0.00 81 1023.1
20260830224545 77 0 0.0 0.0 0.00 0.00 0.00 81 1023.1
20260830224026 78 0 0.0 1.0 0.00 0.00 0.00 80 1023.2
20260830223524 78 0 0.0 1.0 0.00 0.00 0.00 79 1023.3
20260830223059 78 0 0.0 1.0 0.00 0.00 0.00 79 1023.3
20260830222525 78 119 0.0 1.0 0.00 0.00 0.00 78 1023.2
20260830222024 79 0 0.0 1.0 0.00 0.00 0.00 78 1023.3
20260830221554 79 0 0.0 1.0 0.00 0.00 0.00 77 1023.4
20260830221025 80 0 0.0 1.0 0.00 0.00 0.00 78 1023.4
20260830220527 80 0 0.0 1.0 0.00 0.00 0.00 77 1023.3
20260830220053 80 0 0.0 2.0 0.00 0.00 0.00 77 1023.3
20260830215529 81 124 0.0 2.0 0.00 0.00 0.00 77 1023.4
20260830215023 81 51 0.0 2.0 0.00 0.00 0.00 76 1023.3
20260830214547 81 0 0.0 2.0 0.00 0.00 0.00 77 1023.3
20260830214025 81 27 0.0 2.0 0.00 0.00 0.00 76 1023.3
20260830213530 82 49 0.0 2.0 0.00 0.00 0.00 75 1023.2
20260830213050 82 0 0.0 2.0 0.00 0.00 0.00 74 1023.2
20260830212526 82 35 0.0 2.0 0.00 0.00 0.00 73 1023.2
20260830212026 83 29 0.0 2.0 0.00 0.00 0.00 72 1023.3
20260830211545 83 0 0.0 1.0 0.00 0.00 0.00 71 1023.4
20260830211026 83 0 0.0 1.0 0.00 0.00 0.00 72 1023.3
20260830210526 83 0 0.0 1.0 0.00 0.00 0.00 72 1023.4
20260830210048 83 89 0.0 1.0 0.00 0.00 0.00 71 1023.4
20260830205527 83 0 0.0 2.0 0.00 0.00 0.00 71 1023.4
20260830205027 83 88 0.0 2.0 0.00 0.00 0.00 71 1023.5
20260830204600 83 71 0.0 2.0 0.00 0.00 0.00 70 1023.4
20260830204029 84 127 0.0 2.0 0.00 0.00 0.00 68 1023.6
20260830203526 85 79 0.0 2.0 0.00 0.00 0.00 66 1023.6
20260830203052 86 223 0.0 2.0 0.00 0.00 0.00 62 1023.6
20260830202526 87 238 0.0 2.0 0.00 0.00 0.00 62 1023.5
20260830202028 87 0 0.0 1.0 0.00 0.00 0.00 62 1023.7
20260830201549 86 27 0.0 1.0 0.00 0.00 0.00 62 1023.7
20260830201030 85 297 0.0 2.0 0.00 0.00 0.00 62 1023.8
20260830200530 84 0 0.0 2.0 0.00 0.00 0.00 62 1023.8
20260830200046 85 292 0.0 1.0 0.00 0.00 0.00 61 1023.8
20260830195526 85 0 0.0 2.0 0.00 0.00 0.00 61 1023.8
20260830195027 85 0 0.0 3.0 0.00 0.00 0.00 61 1023.8
20260830194604 85 359 0.0 3.0 0.00 0.00 0.00 62 1023.9
20260830194027 85 316 0.0 2.0 0.00 0.00 0.00 61 1024.0
20260830193528 85 0 0.0 2.0 0.00 0.00 0.00 63 1023.8
20260830193051 85 137 0.0 2.0 0.00 0.00 0.00 62 1024.0
20260830192525 85 20 0.0 2.0 0.00 0.00 0.00 63 1024.2
20260830192025 86 359 0.0 1.0 0.00 0.00 0.00 62 1024.2
20260830191545 86 0 0.0 5.0 0.00 0.00 0.00 59 1024.3
20260830191027 85 287 0.0 5.0 0.00 0.00 0.00 59 1024.3
20260830190528 86 327 2.0 5.0 0.00 0.00 0.00 57 1024.4
20260830190058 86 37 1.0 3.0 0.00 0.00 0.00 58 1024.5
20260830185526 86 0 0.0 3.0 0.00 0.00 0.00 61 1024.6
20260830185027 85 108 1.0 3.0 0.00 0.00 0.00 59 1024.7
20260830184554 85 0 0.0 2.0 0.00 0.00 0.00 60 1024.7
20260830184025 85 155 0.0 2.0 0.00 0.00 0.00 62 1024.8
20260830183528 84 108 1.0 3.0 0.00 0.00 0.00 62 1024.8
20260830183051 84 33 1.0 3.0 0.00 0.00 0.00 62 1024.8
20260830182527 83 307 1.0 3.0 0.00 0.00 0.00 62 1024.9
20260830182028 84 295 2.0 3.0 0.00 0.00 0.00 62 1025.0
20260830181546 83 23 1.0 3.0 0.00 0.00 0.00 63 1025.0
20260830181028 83 313 0.0 5.0 0.00 0.00 0.00 66 1025.0
20260830180531 83 316 1.0 5.0 0.00 0.00 0.00 64 1025.1
20260830175525 82 308 2.0 4.0 0.00 0.00 0.00 64 1025.2
20260830175025 82 308 1.0 3.0 0.00 0.00 0.00 65 1025.3
20260830174611 82 28 1.0 5.0 0.00 0.00 0.00 68 1025.3
20260830174024 82 18 1.0 5.0 0.00 0.00 0.00 68 1025.3
20260830173528 82 25 1.0 3.0 0.00 0.00 0.00 68 1025.5
20260830173047 82 216 1.0 4.0 0.00 0.00 0.00 69 1025.3